Flag for Russia Weather past 2 weeks in Yuzhno-Sakhalinsk, Russia

Now
81 °F

Scattered clouds.


Feels Like: 83 °F
Forecast: 60 / 79 °F
Wind: 10 mph from South

Location: Yuzhno Airport-Sakhalinsk

Current Time: Jul 29, 2014 at 4:01:39 PM

Latest Report: Jul 29, 2014 at 3:30 PM


Visibility: N/A

Pressure: 29.77 "Hg

Humidity: 66%

Dew point: 68 °F

Location of Yuzhno-SakhalinskLocation

Historic Weather in Yuzhno-Sakhalinsk — Graph

°F

Yuzhno-Sakhalinsk temperature yesterday

Maximum temperature yesterday: 72 °F (at 1:30 PM)
Minimum temperature yesterday: 54 °F (at 11:30 PM)
Average temperature yesterday: 62 °F

Past Weeks' High & Low Weather Summary

 TemperatureHumidityPressure
High79 °F (Jul 19, 3:00 PM)100% (Jul 14, 8:30 PM)30.07 "Hg (Jul 14, 8:30 PM)
Low54 °F (Jul 26, 4:00 AM)65% (Jul 16, 12:30 PM)29.47 "Hg (Jul 24, 1:00 PM)
Average66 °F89%29.77 "Hg
* Reported Jul 14 2:00 PM — Jul 29 2:30 PM, Yuzhno-Sakhalinsk, Weather by CustomWeather, © 2014

Note: Actual official high and low records may vary slightly from our data, if they occured in-between our weather recording intervals... More about our weather records

Advertising

Yuzhno-Sakhalinsk weather history for previous 24 hours

 ConditionsComfort  
Time TempWeatherWind HumidityBarometerVisibility
2:30 PM
Jul 29
79 °FScattered clouds.13 mph65%29.77 "HgN/A
1:30 PM77 °FScattered clouds.10 mph74%29.80 "HgN/A
1:00 PM75 °FScattered clouds.10 mph78%29.80 "HgN/A
12:30 PM73 °FPartly sunny.8 mph83%29.80 "HgN/A
12:00 PM72 °FPartly sunny.8 mph88%29.80 "HgN/A
11:30 AM68 °FPartly sunny.8 mph100%29.80 "HgN/A
11:00 AM66 °FPartly sunny.8 mph100%29.80 "Hg5 mi
10:30 AM64 °FPartly sunny.6 mph100%29.80 "Hg5 mi
10:00 AM64 °FFog.6 mph100%29.80 "Hg2 mi
9:30 AM63 °FDrizzle. Fog.6 mph100%29.80 "Hg1 mi
9:00 AM63 °FDrizzle. Fog.6 mph100%29.80 "Hg1 mi
8:30 AM63 °FDrizzle. Fog.6 mph100%29.80 "Hg1 mi
8:00 AM61 °FDrizzle. Fog.6 mph100%29.80 "Hg0 mi
7:30 AM61 °FDrizzle. Fog.6 mph100%29.80 "Hg0 mi
7:00 AM61 °FFog.6 mph100%29.80 "Hg0 mi
6:30 AM61 °FFog.6 mph100%29.80 "Hg0 mi
6:00 AM61 °FFog.6 mph100%29.80 "Hg0 mi
5:00 AM61 °FFog.3 mph100%29.77 "Hg1 mi
4:00 AM59 °FFog.1 mph100%29.77 "Hg1 mi
3:00 AM55 °FFog.3 mph100%29.80 "Hg1 mi
2:00 AM59 °FFog.3 mph100%29.77 "Hg0 mi
1:00 AM59 °FFog.3 mph100%29.80 "Hg0 mi
12:00 AM55 °FPassing clouds.3 mph100%29.77 "Hg4 mi
11:30 PM
Jul 28
54 °FPassing clouds.1 mph100%29.77 "Hg4 mi
11:00 PM55 °FPassing clouds.No wind100%29.77 "Hg4 mi
10:30 PM55 °FPassing clouds.No wind100%29.77 "Hg4 mi
10:00 PM55 °FScattered clouds.No wind100%29.77 "Hg4 mi
9:30 PM57 °FPartly sunny.1 mph100%29.77 "HgN/A
9:00 PM61 °FScattered clouds.3 mph94%29.74 "HgN/A
8:30 PM61 °FScattered clouds.6 mph94%29.74 "HgN/A
8:00 PM63 °FScattered clouds.6 mph88%29.74 "HgN/A
7:30 PM64 °FScattered clouds.8 mph83%29.74 "HgN/A
7:00 PM64 °FScattered clouds.8 mph88%29.74 "HgN/A
6:30 PM64 °FScattered clouds.10 mph83%29.74 "HgN/A
6:00 PM64 °FScattered clouds.10 mph88%29.74 "HgN/A
5:30 PM66 °FPartly sunny.10 mph83%29.71 "HgN/A
5:00 PM66 °FPassing clouds.13 mph83%29.71 "HgN/A
4:30 PM68 °FPassing clouds.13 mph78%29.71 "HgN/A
4:00 PM68 °FPassing clouds.13 mph78%29.71 "HgN/A
Weather by CustomWeather, © 2014

See weather overviewHow to use our weather pages